Météo par heure à Justynowka

Ce jour, 20 Juin, Dimanche

Heure Température Précipitation Vent Pression Humidité
00:00 +20°C° 0 mm 3 m/s 750 mmHg 86%
01:00 +19°C° 0 mm 3 m/s 750 mmHg 89%
02:00 +18°C° 0 mm 3 m/s 750 mmHg 91%
03:00 +18°C° 0 mm 3 m/s 750 mmHg 93%
04:00 +18°C° 0 mm 2 m/s 750 mmHg 95%
05:00 +19°C° 0 mm 3 m/s 750 mmHg 87%
06:00 +21°C° 0 mm 4 m/s 750 mmHg 79%
07:00 +23°C° 0 mm 4 m/s 750 mmHg 71%
08:00 +25°C° 0 mm 4 m/s 750 mmHg 65%
09:00 +26°C° 0 mm 4 m/s 750 mmHg 60%
10:00 +28°C° 0 mm 4 m/s 750 mmHg 54%
11:00 +29°C° 0 mm 4 m/s 749 mmHg 51%
12:00 +29°C° 0 mm 4 m/s 749 mmHg 49%
13:00 +30°C° 0 mm 4 m/s 749 mmHg 47%
14:00 +30°C° 0 mm 4 m/s 748 mmHg 48%
15:00 +30°C° 0 mm 4 m/s 748 mmHg 49%
16:00 +30°C° 0 mm 4 m/s 748 mmHg 50%
17:00 +29°C° 0 mm 4 m/s 748 mmHg 58%
18:00 +27°C° 0 mm 4 m/s 747 mmHg 66%
19:00 +26°C° 0 mm 4 m/s 747 mmHg 74%
20:00 +25°C° 0 mm 4 m/s 747 mmHg 79%
21:00 +22°C° 0 mm 3 m/s 747 mmHg 84%
22:00 +21°C° 0 mm 3 m/s 747 mmHg 89%
23:00 +21°C° 0 mm 3 m/s 747 mmHg 89%

Demain, 21 Juin, Lundi

Heure Température Précipitation Vent Pression Humidité
00:00 +20°C° 0 mm 3 m/s 747 mmHg 90%
01:00 +20°C° 0 mm 3 m/s 747 mmHg 91%
02:00 +19°C° 0 mm 3 m/s 747 mmHg 92%
03:00 +19°C° 0 mm 3 m/s 746 mmHg 92%
04:00 +19°C° 0 mm 3 m/s 746 mmHg 93%
05:00 +20°C° 0 mm 4 m/s 746 mmHg 87%
06:00 +22°C° 0 mm 4 m/s 746 mmHg 82%
07:00 +23°C° 0 mm 5 m/s 746 mmHg 76%
08:00 +25°C° 0 mm 5 m/s 746 mmHg 70%
09:00 +27°C° 0 mm 5 m/s 746 mmHg 65%
10:00 +28°C° 0 mm 5 m/s 746 mmHg 59%
11:00 +28°C° 0 mm 5 m/s 746 mmHg 59%
12:00 +28°C° 0 mm 5 m/s 746 mmHg 59%
13:00 +28°C° 0 mm 5 m/s 745 mmHg 59%
14:00 +28°C° 0 mm 5 m/s 745 mmHg 60%
15:00 +29°C° 0 mm 5 m/s 745 mmHg 60%
16:00 +29°C° 0 mm 5 m/s 745 mmHg 60%
17:00 +28°C° 0.2 mm 4 m/s 745 mmHg 65%
18:00 +27°C° 0.2 mm 4 m/s 745 mmHg 71%
19:00 +26°C° 0.2 mm 4 m/s 744 mmHg 76%
20:00 +23°C° 0.2 mm 4 m/s 745 mmHg 81%
21:00 +22°C° 0.2 mm 3 m/s 745 mmHg 86%
22:00 +21°C° 0.2 mm 3 m/s 745 mmHg 91%
23:00 +21°C° 0.4 mm 3 m/s 745 mmHg 92%

Après-demain, 22 Juin, Mardi

Heure Température Précipitation Vent Pression Humidité
00:00 +20°C° 0.4 mm 2 m/s 745 mmHg 93%
01:00 +20°C° 0.4 mm 2 m/s 745 mmHg 94%
02:00 +20°C° 0.2 mm 2 m/s 745 mmHg 94%
03:00 +20°C° 0.2 mm 2 m/s 745 mmHg 94%
04:00 +20°C° 0.2 mm 2 m/s 745 mmHg 94%
05:00 +21°C° 0.5 mm 2 m/s 745 mmHg 91%
06:00 +23°C° 0.5 mm 2 m/s 745 mmHg 87%
07:00 +24°C° 0.5 mm 2 m/s 746 mmHg 84%
08:00 +25°C° 0.1 mm 2 m/s 746 mmHg 79%
09:00 +26°C° 0.1 mm 2 m/s 746 mmHg 73%
10:00 +27°C° 0.1 mm 2 m/s 746 mmHg 68%
11:00 +28°C° 0.2 mm 2 m/s 746 mmHg 66%
12:00 +29°C° 0.2 mm 2 m/s 746 mmHg 63%
13:00 +29°C° 0.2 mm 2 m/s 746 mmHg 61%
14:00 +29°C° 0.4 mm 3 m/s 747 mmHg 61%
15:00 +29°C° 0.4 mm 3 m/s 747 mmHg 62%
16:00 +29°C° 0.4 mm 3 m/s 747 mmHg 63%
17:00 +28°C° 0.2 mm 2 m/s 747 mmHg 69%
18:00 +27°C° 0.2 mm 2 m/s 747 mmHg 74%
19:00 +26°C° 0.2 mm 2 m/s 747 mmHg 80%
20:00 +25°C° 0 mm 2 m/s 747 mmHg 83%
21:00 +24°C° 0 mm 1 m/s 747 mmHg 86%
22:00 +23°C° 0 mm 1 m/s 748 mmHg 89%
23:00 +22°C° 0 mm 1 m/s 748 mmHg 90%

23 Juin, Mercredi

Heure Température Précipitation Vent Pression Humidité
00:00 +22°C° 0 mm 1 m/s 747 mmHg 91%
01:00 +21°C° 0 mm 2 m/s 747 mmHg 92%
02:00 +20°C° 0 mm 2 m/s 748 mmHg 93%
03:00 +20°C° 0 mm 2 m/s 748 mmHg 94%
04:00 +20°C° 0 mm 2 m/s 748 mmHg 95%
05:00 +23°C° 0 mm 2 m/s 748 mmHg 89%
06:00 +24°C° 0 mm 2 m/s 748 mmHg 83%
07:00 +26°C° 0 mm 2 m/s 748 mmHg 77%
08:00 +27°C° 0 mm 2 m/s 748 mmHg 71%
09:00 +29°C° 0 mm 2 m/s 748 mmHg 65%
10:00 +31°C° 0 mm 3 m/s 748 mmHg 59%
11:00 +31°C° 0.2 mm 2 m/s 748 mmHg 56%
12:00 +32°C° 0.2 mm 2 m/s 748 mmHg 53%
13:00 +34°C° 0.2 mm 2 m/s 748 mmHg 49%
14:00 +31°C° 0.8 mm 2 m/s 748 mmHg 56%
15:00 +30°C° 0.8 mm 2 m/s 747 mmHg 63%
16:00 +28°C° 0.8 mm 3 m/s 747 mmHg 70%
17:00 +26°C° 7.4 mm 3 m/s 748 mmHg 78%
18:00 +23°C° 7.4 mm 4 m/s 749 mmHg 86%
19:00 +21°C° 7.4 mm 4 m/s 750 mmHg 94%
20:00 +21°C° 0.1 mm 4 m/s 750 mmHg 94%
21:00 +20°C° 0.1 mm 4 m/s 750 mmHg 93%
22:00 +20°C° 0.1 mm 3 m/s 751 mmHg 93%
23:00 +19°C° 0 mm 3 m/s 751 mmHg 93%

24 Juin, Jeudi

Heure Température Précipitation Vent Pression Humidité
00:00 +19°C° 0 mm 3 m/s 751 mmHg 94%
01:00 +18°C° 0 mm 3 m/s 751 mmHg 94%
02:00 +17°C° 0 mm 3 m/s 751 mmHg 93%
03:00 +16°C° 0 mm 3 m/s 751 mmHg 93%
04:00 +14°C° 0 mm 3 m/s 751 mmHg 93%
05:00 +17°C° 0 mm 3 m/s 752 mmHg 88%
06:00 +18°C° 0 mm 2 m/s 752 mmHg 83%
07:00 +19°C° 0 mm 2 m/s 752 mmHg 79%
08:00 +20°C° 0 mm 2 m/s 752 mmHg 74%
09:00 +22°C° 0 mm 3 m/s 752 mmHg 69%
10:00 +24°C° 0 mm 3 m/s 752 mmHg 63%
11:00 +25°C° 0 mm 2 m/s 752 mmHg 60%
12:00 +26°C° 0 mm 1 m/s 752 mmHg 57%
13:00 +28°C° 0 mm 1 m/s 752 mmHg 54%
14:00 +28°C° 0 mm 1 m/s 751 mmHg 53%
15:00 +28°C° 0 mm 1 m/s 751 mmHg 53%
16:00 +29°C° 0 mm 1 m/s 751 mmHg 53%
17:00 +27°C° 0 mm 1 m/s 750 mmHg 59%
18:00 +26°C° 0 mm 2 m/s 750 mmHg 65%
19:00 +25°C° 0 mm 2 m/s 749 mmHg 71%
20:00 +24°C° 0.1 mm 2 m/s 749 mmHg 75%
21:00 +22°C° 0.1 mm 3 m/s 749 mmHg 78%
22:00 +22°C° 0.1 mm 3 m/s 749 mmHg 81%
23:00 +21°C° 4.2 mm 4 m/s 749 mmHg 86%

25 Juin, Vendredi

Heure Température Précipitation Vent Pression Humidité
00:00 +20°C° 4.2 mm 4 m/s 748 mmHg 91%
01:00 +20°C° 4.2 mm 5 m/s 748 mmHg 96%
02:00 +20°C° 6.6 mm 5 m/s 748 mmHg 94%
03:00 +19°C° 6.6 mm 4 m/s 747 mmHg 92%
04:00 +19°C° 6.6 mm 4 m/s 747 mmHg 90%
05:00 +20°C° 0.1 mm 4 m/s 747 mmHg 88%
06:00 +21°C° 0.1 mm 4 m/s 748 mmHg 87%
07:00 +21°C° 0.1 mm 3 m/s 748 mmHg 85%
08:00 +22°C° 0.1 mm 4 m/s 749 mmHg 82%
09:00 +23°C° 0.1 mm 4 m/s 749 mmHg 80%
10:00 +25°C° 0.1 mm 5 m/s 749 mmHg 77%
11:00 +23°C° 0 mm 5 m/s 749 mmHg 79%
12:00 +22°C° 0 mm 6 m/s 749 mmHg 80%
13:00 +21°C° 0 mm 7 m/s 750 mmHg 82%
14:00 +20°C° 0 mm 7 m/s 750 mmHg 83%
15:00 +19°C° 0 mm 6 m/s 750 mmHg 83%
16:00 +17°C° 0 mm 6 m/s 751 mmHg 84%
17:00 +17°C° 0 mm 6 m/s 751 mmHg 83%
18:00 +17°C° 0 mm 5 m/s 751 mmHg 82%
19:00 +16°C° 0 mm 5 m/s 751 mmHg 82%
20:00 +17°C° 0 mm 4 m/s 751 mmHg 83%
21:00 +16°C° 0 mm 3 m/s 752 mmHg 84%
22:00 +14°C° 0 mm 3 m/s 752 mmHg 86%
23:00 +15°C° 0 mm 2 m/s 752 mmHg 88%
Voir plus

Nous avons besoin de votre consentement

Meteoprog et ses fournisseurs de services peuvent stocker et accéder à des données personnelles telles que des cookies, des identifiants d'appareils ou d'autres technologies similaires sur votre appareil et traiter ces données pour personnaliser le contenu et les publicités, ainsi que pour fournir des fonctionnalités de médias sociaux et analyser le trafic.

  • Stocker et/ou accéder à des informations sur votre appareil

    Des cookies, des identifiants d'appareils ou d'autres informations peuvent être stockés ou accessibles sur votre appareil aux fins indiquées ci-dessus.

  • Annonces et contenus personnalisés, mesure des annonces et des contenus, connaissance de l'audience et développement de produits

    Les annonces et le contenu peuvent être personnalisés en fonction d'un profil. D'autres données peuvent être ajoutées pour mieux personnaliser les annonces et le contenu. Les performances des publicités et du contenu peuvent être mesurées. Il est possible d'obtenir des informations sur le public qui a vu les publicités et le contenu. Ces données peuvent être utilisées pour développer ou améliorer l'expérience de l'utilisateur, les systèmes et les logiciels.

En cliquant sur "J'accepte", vous autorisez l'utilisation de cookies, des identifiants d'appareils, des balises web ou d'autres technologies similaires. Vos paramètres peuvent être modifiés dans le navigateur de votre appareil.

Dans certains cas, des intérêts légitimes peuvent être invoqués plutôt qu'un consentement. Vous pouvez en savoir plus à ce sujet dans notre Politique de confidentialité et de cookies.